Camarillo, CA

12:41 PM PDT on July 23, 2017 (GMT -0700)
Camarillo

Weather History for KCMA - December, 2013

Change the Weather History Date:

Tuesday, December 10, 2013

  Actual Average Record
Temperature  
Mean Temperature 55 °F 54 °F  
Max Temperature 68 °F 66 °F 85 °F (1958)
Min Temperature 41 °F 42 °F 31 °F (1972)
Degree Days  
Heating Degree Days 10 11  
Month to date heating degree days 134 107  
Since 1 July heating degree days 358 439  
Cooling Degree Days 0 0  
Month to date cooling degree days 0 0  
Year to date cooling degree days 634 330  
Growing Degree Days 4 (Base 50)    
Moisture  
Dew Point 6 °F    
Average Humidity 31    
Maximum Humidity 54    
Minimum Humidity 7    
Precipitation  
Precipitation 0.00 in 0.04 in 2.60 in (1996)
Month to date precipitation 0.22 0.39  
Year to date precipitation 2.97 13.55  
Since 1 July precipitation 0.82  
Sea Level Pressure  
Sea Level Pressure 30.20 in    
Wind  
Wind Speed 11 mph (ENE)    
Max Wind Speed 26 mph    
Max Gust Speed 33 mph    
Visibility 10 miles    
Events      
T = Trace of Precipitation, MM = Missing Value Source: NWS Daily Summary

Daily Weather History Graph

Daily Weather History Graph

Search for Another Location

Airport or City:

Trip Planner

Search our weather history database for the weather conditions in past years. The results will help you decide how hot, cold, wet, or windy it might be!

Date:

Astronomy

Dec. 10, 2013 Rise Set
Actual Time 6:51 AM PST 4:46 PM PST
Civil Twilight 6:23 AM PST 5:14 PM PST
Nautical Twilight 5:52 AM PST 5:45 PM PST
Astronomical Twilight 5:22 AM PST 6:16 PM PST
Moon 12:37 PM PST (12/10) 12:29 AM PST (12/10)
Length of Visible Light 10h 50m
Length of Day
9h 55m
Waxing Gibbous, 63% of the Moon is Illuminated
Dec 10
Waxing Gibbous
Dec 17
Full
Dec 25
Last Quarter
Jan 1
New
Jan 7
First Quarter

Hourly Weather History & Observations

Time (PST) Temp. Dew Point Humidity Pressure Visibility Wind Dir Wind Speed Gust Speed Precip Events Conditions
12:55 AM 51.1 °F -5.1 °F 10% 30.30 in 10.0 mi East 20.7 mph 27.6 mph N/A   Clear
1:55 AM 51.1 °F -4.0 °F 10% 30.28 in 10.0 mi East 19.6 mph 32.2 mph N/A   Clear
2:55 AM 50.0 °F -4.0 °F 11% 30.27 in 10.0 mi East 20.7 mph 29.9 mph N/A   Clear
3:55 AM 50.0 °F -4.0 °F 11% 30.26 in 10.0 mi ENE 12.7 mph - N/A   Clear
4:55 AM 50.0 °F -2.9 °F 11% 30.25 in 10.0 mi ENE 12.7 mph - N/A   Clear
5:55 AM 50.0 °F -2.9 °F 11% 30.25 in 10.0 mi East 17.3 mph 25.3 mph N/A   Clear
6:55 AM 50.0 °F -2.0 °F 12% 30.26 in 10.0 mi East 15.0 mph - N/A   Clear
7:55 AM 53.1 °F -2.0 °F 10% 30.26 in 10.0 mi East 17.3 mph - N/A   Clear
8:55 AM 55.0 °F -0.0 °F 11% 30.26 in 10.0 mi East 15.0 mph - N/A   Clear
9:55 AM 60.1 °F -0.0 °F 9% 30.25 in 10.0 mi ENE 20.7 mph 29.9 mph N/A   Clear
10:55 AM 62.1 °F 1.0 °F 9% 30.23 in 10.0 mi ENE 19.6 mph 26.5 mph N/A   Clear
11:55 AM 64.0 °F -0.0 °F 8% 30.19 in 10.0 mi NE 19.6 mph - N/A   Clear
12:55 PM 66.0 °F 1.0 °F 8% 30.16 in 10.0 mi East 11.5 mph - N/A   Clear
1:55 PM 66.9 °F 1.0 °F 7% 30.14 in 10.0 mi East 11.5 mph 21.9 mph N/A   Clear
2:55 PM 66.0 °F 1.9 °F 8% 30.14 in 10.0 mi East 12.7 mph - N/A   Clear
3:55 PM 64.0 °F 3.0 °F 9% 30.14 in 10.0 mi East 4.6 mph - N/A   Clear
4:55 PM 54.0 °F 36.0 °F 51% 30.14 in 10.0 mi NNW 5.8 mph - N/A   Clear
5:55 PM 51.1 °F 35.1 °F 54% 30.14 in 10.0 mi Calm Calm - N/A   Clear
6:55 PM 46.9 °F 16.0 °F 29% 30.15 in 10.0 mi NE 8.1 mph - N/A   Clear
7:55 PM 42.1 °F 21.9 °F 45% 30.16 in 10.0 mi Calm Calm - N/A   Clear
8:55 PM 43.0 °F 19.9 °F 40% 30.16 in 10.0 mi Calm Calm - N/A   Clear
9:55 PM 43.0 °F 19.0 °F 38% 30.17 in 10.0 mi Calm Calm - N/A   Clear
10:55 PM 46.9 °F 10.0 °F 22% 30.17 in 10.0 mi ENE 5.8 mph - N/A   Clear
11:55 PM 46.9 °F 10.9 °F 23% 30.15 in 10.0 mi ENE 3.5 mph - N/A   Clear